| time (UTC) | temp F | wind direction | speed knots | gust knots | rain 1hr in | rain 24hr in | rain mn in | humidity % | barometer mb |
| 20260906111542 | 66 | 0 | 0.0 | 0.0 | 0.10 | 0.12 | 0.12 | 93 | 1016.4 |
| 20260906110047 | 66 | 0 | 0.0 | 0.0 | 0.11 | 0.11 | 0.11 | 93 | 1016.2 |
| 20260906104546 | 66 | 0 | 0.0 | 0.0 | 0.11 | 0.11 | 0.11 | 93 | 1016.1 |
| 20260906103052 | 66 | 0 | 0.0 | 0.0 | 0.04 | 0.04 | 0.04 | 93 | 1016.1 |
| 20260906101546 | 66 | 0 | 0.0 | 0.0 | 0.02 | 0.02 | 0.02 | 93 | 1015.8 |
| 20260906100048 | 66 | 0 | 0.0 | 0.0 | 0.00 | 0.00 | 0.00 | 93 | 1015.8 |
| 20260906094545 | 65 | 0 | 0.0 | 0.0 | 0.00 | 0.00 | 0.00 | 93 | 1015.6 |
| 20260906093055 | 65 | 0 | 0.0 | 0.0 | 0.00 | 0.00 | 0.00 | 92 | 1015.5 |
| 20260906091548 | 65 | 0 | 0.0 | 0.0 | 0.00 | 0.00 | 0.00 | 92 | 1015.5 |
| 20260906090046 | 65 | 0 | 0.0 | 0.0 | 0.00 | 0.00 | 0.00 | 92 | 1015.3 |
| 20260906084552 | 65 | 0 | 0.0 | 0.0 | 0.00 | 0.00 | 0.00 | 92 | 1015.5 |
| 20260906083051 | 65 | 0 | 0.0 | 0.0 | 0.00 | 0.00 | 0.00 | 92 | 1015.5 |
| 20260906081547 | 65 | 0 | 0.0 | 0.9 | 0.00 | 0.00 | 0.00 | 92 | 1015.5 |
| 20260906080046 | 66 | 0 | 0.0 | 0.0 | 0.00 | 0.00 | 0.00 | 92 | 1015.4 |
| 20260906074556 | 65 | 0 | 0.0 | 2.6 | 0.00 | 0.00 | 0.00 | 92 | 1015.5 |
| 20260906073051 | 65 | 0 | 0.0 | 0.0 | 0.00 | 0.00 | 0.00 | 92 | 1015.5 |
| 20260906071546 | 66 | 0 | 0.0 | 0.0 | 0.00 | 0.00 | 0.00 | 91 | 1015.6 |
| 20260906070051 | 66 | 0 | 0.0 | 0.0 | 0.00 | 0.00 | 0.00 | 91 | 1015.6 |
| 20260906064546 | 66 | 0 | 0.0 | 0.0 | 0.00 | 0.00 | 0.00 | 91 | 1015.5 |
| 20260906063047 | 66 | 0 | 0.0 | 0.0 | 0.00 | 0.00 | 0.00 | 91 | 1015.9 |
| 20260906061544 | 66 | 0 | 0.0 | 0.0 | 0.00 | 0.00 | 0.00 | 90 | 1016.1 |
| 20260906060059 | 67 | 0 | 0.0 | 0.0 | 0.00 | 0.00 | 0.00 | 90 | 1016.1 |
| 20260906054547 | 67 | 0 | 0.0 | 0.0 | 0.00 | 0.00 | 0.00 | 89 | 1016.2 |
| 20260906053043 | 67 | 0 | 0.0 | 0.0 | 0.00 | 0.00 | 0.00 | 89 | 1016.3 |
| 20260906051603 | 68 | 0 | 0.0 | 0.0 | 0.00 | 0.00 | 0.00 | 89 | 1016.1 |
| 20260906050053 | 68 | 0 | 0.0 | 0.0 | 0.00 | 0.00 | 0.00 | 89 | 1016.3 |
| 20260906044547 | 68 | 0 | 0.0 | 0.0 | 0.00 | 0.00 | 0.00 | 88 | 1016.1 |
| 20260906043043 | 68 | 0 | 0.0 | 0.0 | 0.00 | 0.00 | 0.00 | 88 | 1016.0 |
| 20260906041552 | 69 | 0 | 0.0 | 0.0 | 0.00 | 0.00 | 0.00 | 87 | 1016.0 |
| 20260906040048 | 69 | 0 | 0.0 | 0.0 | 0.00 | 0.00 | 0.00 | 86 | 1016.1 |
| 20260906034543 | 69 | 0 | 0.0 | 0.0 | 0.00 | 0.00 | 0.00 | 86 | 1016.2 |
| 20260906033054 | 70 | 0 | 0.0 | 0.0 | 0.00 | 0.00 | 0.00 | 85 | 1016.5 |
| 20260906031551 | 70 | 0 | 0.0 | 0.0 | 0.00 | 0.00 | 0.00 | 84 | 1016.6 |
| 20260906030049 | 70 | 0 | 0.0 | 0.9 | 0.00 | 0.00 | 0.00 | 84 | 1016.7 |
| 20260906024553 | 71 | 6 | 0.0 | 3.5 | 0.00 | 0.00 | 0.00 | 83 | 1016.8 |
| 20260906023050 | 71 | 0 | 0.0 | 0.0 | 0.00 | 0.00 | 0.00 | 82 | 1016.9 |
| 20260906021554 | 72 | 0 | 0.0 | 4.3 | 0.00 | 0.00 | 0.00 | 80 | 1016.9 |
| 20260906020049 | 73 | 0 | 0.0 | 0.0 | 0.00 | 0.00 | 0.00 | 78 | 1016.8 |
| 20260906014549 | 74 | 0 | 0.0 | 0.0 | 0.00 | 0.00 | 0.00 | 77 | 1016.7 |
| 20260906013047 | 74 | 0 | 0.0 | 0.0 | 0.00 | 0.00 | 0.00 | 76 | 1016.7 |
| 20260906011545 | 74 | 0 | 0.0 | 0.9 | 0.00 | 0.00 | 0.00 | 76 | 1016.5 |
| 20260906010044 | 75 | 0 | 0.0 | 0.9 | 0.00 | 0.00 | 0.00 | 74 | 1016.2 |
| 20260906004551 | 75 | 0 | 0.0 | 0.9 | 0.00 | 0.00 | 0.00 | 73 | 1016.2 |
| 20260906003047 | 75 | 142 | 0.0 | 3.5 | 0.00 | 0.00 | 0.00 | 72 | 1016.0 |
| 20260906001554 | 76 | 101 | 0.0 | 4.3 | 0.00 | 0.00 | 0.00 | 71 | 1016.0 |
| 20260906000052 | 76 | 175 | 3.5 | 8.7 | 0.00 | 0.00 | 0.00 | 70 | 1016.0 |
| 20260905234549 | 77 | 164 | 2.6 | 8.7 | 0.00 | 0.00 | 0.00 | 69 | 1015.9 |
| 20260905233044 | 77 | 137 | 2.6 | 7.8 | 0.00 | 0.00 | 0.00 | 67 | 1015.9 |
| 20260905231543 | 78 | 132 | 3.5 | 8.7 | 0.00 | 0.00 | 0.00 | 65 | 1015.9 |
| 20260905230049 | 79 | 175 | 2.6 | 7.8 | 0.00 | 0.00 | 0.00 | 63 | 1016.0 |
| 20260905224542 | 80 | 175 | 3.5 | 11.3 | 0.00 | 0.00 | 0.00 | 61 | 1015.9 |
| 20260905223054 | 80 | 195 | 3.5 | 9.6 | 0.00 | 0.00 | 0.00 | 59 | 1015.9 |
| 20260905221544 | 80 | 144 | 2.6 | 13.0 | 0.00 | 0.00 | 0.00 | 57 | 1015.8 |
| 20260905220055 | 82 | 160 | 2.6 | 8.7 | 0.00 | 0.00 | 0.00 | 54 | 1015.6 |
| 20260905214546 | 82 | 153 | 2.6 | 11.3 | 0.00 | 0.02 | 0.00 | 54 | 1015.5 |
| 20260905213054 | 82 | 171 | 6.1 | 13.0 | 0.00 | 0.02 | 0.00 | 54 | 1015.4 |
| 20260905211607 | 83 | 100 | 6.1 | 9.6 | 0.00 | 0.02 | 0.00 | 55 | 1015.3 |
| 20260905204545 | 82 | 134 | 4.3 | 8.7 | 0.00 | 0.11 | 0.00 | 59 | 1015.2 |
| 20260905203052 | 82 | 98 | 4.3 | 8.7 | 0.00 | 0.11 | 0.00 | 60 | 1015.2 |
| 20260905201552 | 82 | 96 | 3.5 | 11.3 | 0.00 | 0.11 | 0.00 | 58 | 1015.2 |
| 20260905200048 | 83 | 124 | 3.5 | 9.6 | 0.00 | 0.11 | 0.00 | 57 | 1015.3 |
| 20260905194548 | 83 | 88 | 1.7 | 9.6 | 0.00 | 0.11 | 0.00 | 56 | 1015.3 |
| 20260905193047 | 83 | 119 | 5.2 | 11.3 | 0.00 | 0.11 | 0.00 | 56 | 1015.5 |
| 20260905191546 | 82 | 175 | 5.2 | 10.4 | 0.00 | 0.11 | 0.00 | 57 | 1015.6 |
| 20260905190059 | 81 | 134 | 3.5 | 9.6 | 0.00 | 0.11 | 0.00 | 64 | 1015.8 |
| 20260905184552 | 80 | 106 | 3.5 | 8.7 | 0.00 | 0.11 | 0.00 | 68 | 1016.0 |
| 20260905183052 | 80 | 175 | 3.5 | 7.8 | 0.00 | 0.11 | 0.00 | 68 | 1016.2 |
| 20260905181551 | 80 | 72 | 0.9 | 8.7 | 0.00 | 0.11 | 0.00 | 68 | 1016.4 |
| 20260905180050 | 80 | 180 | 6.1 | 12.2 | 0.00 | 0.11 | 0.00 | 70 | 1016.6 |
| 20260905174544 | 79 | 88 | 1.7 | 9.6 | 0.00 | 0.11 | 0.00 | 72 | 1016.5 |
| 20260905173050 | 77 | 98 | 2.6 | 7.8 | 0.00 | 0.11 | 0.00 | 76 | 1016.7 |
| 20260905171551 | 75 | 0 | 1.7 | 7.8 | 0.00 | 0.11 | 0.00 | 81 | 1016.5 |
| 20260905170043 | 74 | 338 | 2.6 | 9.6 | 0.00 | 0.11 | 0.00 | 83 | 1016.8 |
| 20260905164544 | 74 | 43 | 3.5 | 6.1 | 0.00 | 0.11 | 0.00 | 84 | 1017.4 |
| 20260905163048 | 73 | 0 | 0.0 | 4.3 | 0.00 | 0.11 | 0.00 | 83 | 1017.8 |
| 20260905161545 | 73 | 0 | 0.0 | 1.7 | 0.00 | 0.11 | 0.00 | 81 | 1018.2 |
| 20260905160058 | 73 | 0 | 0.0 | 3.5 | 0.00 | 0.11 | 0.00 | 80 | 1018.4 |
| 20260905154549 | 73 | 0 | 0.0 | 0.0 | 0.00 | 0.11 | 0.00 | 81 | 1018.7 |
| 20260905153106 | 73 | 0 | 0.0 | 4.3 | 0.00 | 0.11 | 0.00 | 82 | 1019.0 |
| 20260905151552 | 73 | 199 | 4.3 | 8.7 | 0.00 | 0.11 | 0.00 | 83 | 1019.0 |
| 20260905150055 | 72 | 175 | 3.5 | 9.6 | 0.00 | 0.11 | 0.00 | 83 | 1019.0 |
| 20260905144547 | 73 | 76 | 4.3 | 12.2 | 0.00 | 0.11 | 0.00 | 82 | 1018.7 |
| 20260905143052 | 76 | 168 | 0.9 | 8.7 | 0.00 | 0.11 | 0.00 | 81 | 1018.5 |
| 20260905141557 | 76 | 0 | 0.0 | 5.2 | 0.00 | 0.11 | 0.00 | 82 | 1017.7 |
| 20260905140047 | 76 | 79 | 0.0 | 5.2 | 0.00 | 0.11 | 0.00 | 83 | 1017.8 |
| 20260905134552 | 75 | 63 | 1.7 | 8.7 | 0.00 | 0.11 | 0.00 | 82 | 1017.7 |
| 20260905133050 | 75 | 59 | 0.0 | 9.6 | 0.00 | 0.11 | 0.00 | 83 | 1017.7 |
| 20260905131557 | 75 | 58 | 4.3 | 7.8 | 0.00 | 0.11 | 0.00 | 83 | 1017.8 |
| 20260905130052 | 74 | 85 | 3.5 | 7.8 | 0.00 | 0.11 | 0.00 | 86 | 1017.7 |
| 20260905124550 | 72 | 4 | 2.6 | 7.0 | 0.00 | 0.11 | 0.00 | 90 | 1017.9 |
| 20260905123049 | 71 | 93 | 3.5 | 7.8 | 0.00 | 0.11 | 0.00 | 92 | 1017.8 |
| 20260905121554 | 69 | 89 | 0.0 | 1.7 | 0.00 | 0.11 | 0.00 | 93 | 1017.7 |
| 20260905120054 | 68 | 0 | 0.0 | 0.0 | 0.00 | 0.11 | 0.00 | 93 | 1017.4 |
| 20260905114552 | 67 | 0 | 0.0 | 0.0 | 0.00 | 0.11 | 0.00 | 93 | 1017.4 |
| 20260905113046 | 66 | 0 | 0.0 | 0.0 | 0.00 | 0.11 | 0.00 | 93 | 1017.3 |